sat.trackr.live / text

‹ back to catalog

WASEDA-SAT-ZERO-II

NORAD 68797 · 2026-088F

PAYLOAD ACTIVE UNKNOWN

§ Identity

Operator
Country
JPN
Launch date
2026-04-23
Launch site
RLLB
Launch vehicle
Mass (kg)
RCS (m²)

External: N2YO · Heavens-Above · Gunter

§ Orbital elements

Epoch: 2026-05-25T03:20:59.877888Z

Period
95.47 min
Inclination
97.5036°
Eccentricity
0.0016573
Mean motion
15.08324860 rev/d
Perigee alt
529.9 km
Apogee alt
552.8 km
Semi-major
6,919.5 km
B*
3.8731e-4
RAAN
295.0618°
Arg perigee
152.6531°
Mean anomaly
207.5573°
Rev number
482

§ Raw data

WASEDA-SAT-ZERO-II1 68797U 26088F   26145.13958192  .00005969  00000+0  38731-3 0  99902 68797  97.5036 295.0618 0016573 152.6531 207.5573 15.08324860  4825

JSON: /api/v1/satellites/68797 · /tle

For live sub-satellite position, see the globe view (requires WebGL).

§ Visibility from observer

Set your observer location to see the next 7 days of passes ≥ 10°. The values pass through the URL so the page stays shareable.

No JS? Fill the form by hand. The geolocation button needs JavaScript.